Location: ????
(35.9841°N, 43.6190°E)
Time: 00:01:57
(UTC+00:00)

Daily predictions for brighter satellites

Satellite Brightness Start Highest point End
(mag) Time Altitude Azimuth Time Altitude Azimuth Time Altitude Azimuth
Cosmos 2219 Rocket 3.6 00:15:19 33° ENE 00:15:19 33° ENE 00:18:45 10° NE
USA 234 4.4 00:08:39 10° E 00:14:33 38° NE 00:16:05 33° N
COSMOS 2428 3.5 00:32:15 48° NE 00:32:15 48° NE 00:36:24 10° NNE
IDEFIX/ARIANE 42P 3.5 00:30:33 10° NNE 00:34:23 44° NE 00:34:23 44° NE
Cosmos 2360 Rocket 4.3 00:48:23 15° N 00:48:23 15° N 00:49:34 10° N
COSMOS 2455 4.0 00:48:35 32° N 00:48:35 32° N 00:52:03 10° NNE
ATLAS 2AS CENTAUR R/B 3.2 00:44:14 41° S 00:47:16 70° ESE 00:55:18 10° NE
H-2A R/B 3.7 00:48:41 10° NNE 00:51:50 40° ENE 00:51:50 40° ENE
Cosmos 2181 Rocket 4.4 00:47:35 10° N 00:53:54 61° E 01:00:02 10° SSE
USA 238 DEB 4.4 00:49:39 11° NNW 00:56:29 55° NE 01:03:45 10° SE
USA 238 4.5 00:49:44 11° NNW 00:56:35 54° NE 01:03:49 10° SE
Cosmos 1025 Rocket 3.5 01:06:31 53° NE 01:06:31 53° NE 01:09:58 10° NNE
Cosmos 1844 Rocket 3.6 01:10:52 32° S 01:10:52 32° S 01:13:51 10° S
Aureole 1 Rocket 4.0 01:17:08 52° W 01:17:52 55° WNW 01:23:20 10° N
Milstar 3 Cent rocket 4.1 01:18:04 14° SSW 01:20:27 17° SSE 01:23:39 10° ESE
Cosmos 1536 Rocket 4.3 01:22:33 39° NNW 01:22:33 39° NNW 01:25:24 10° N
Cosmos 921 Rocket 4.1 01:17:04 10° N 01:21:09 42° ENE 01:25:09 10° SE
NOSS 3-2 (A) 4.3 01:15:10 10° NNW 01:22:56 71° ENE 01:31:25 10° SE
Cosmos 2333 Rocket 2.6 01:24:26 42° NW 01:24:26 42° NW 01:29:29 10° N
Meteor 1-22 Rocket 4.0 01:21:22 10° NNW 01:26:36 59° W 01:31:45 10° S
Cosmos 407 Rocket 3.7 01:21:51 10° S 01:26:58 70° ESE 01:32:04 10° NNE
Cosmos 2278 Rocket 3.3 01:22:25 10° N 01:27:51 45° ENE 01:33:14 10° SE
ADEOS 4.0 01:24:06 10° N 01:28:30 41° NW 01:28:30 41° NW
Meteor 1-21 4.0 01:24:30 12° SSW 01:29:38 72° W 01:35:15 10° N
Centaur D-1AR AC-39 4.0 01:28:35 10° S 01:29:46 11° SSE 01:31:06 10° SE
COSMOS 2441 4.2 01:26:18 10° N 01:31:11 69° WNW 01:34:13 23° SSW
Cosmos 1844 3.9 01:31:21 42° WNW 01:32:20 46° WSW 01:37:46 10° S
USA 32 3.9 01:32:35 10° S 01:37:47 74° W 01:43:02 10° N
CZ-4B R/B 2.9 01:34:24 10° NNE 01:38:25 73° ESE 01:42:13 10° S
Fregat R/B Cluster 11 3.5 01:40:15 60° WNW 01:40:22 61° NW 01:45:51 10° NNE
MSX 3.9 01:35:04 10° N 01:40:38 55° WNW 01:46:11 10° SSW
Celestis-02/Orion 38 4.4 01:35:50 10° SSE 01:40:56 80° WSW 01:46:13 10° NNW
Meteor 1-4 Rocket 3.5 01:41:53 10° S 01:45:17 47° E 01:48:40 10° NNE
NOSS 3-2 (C) 4.5 01:37:42 10° NNW 01:45:27 67° NE 01:53:55 10° SE
BREEZE-M DEB (TANK) 4.5 01:46:33 18° NW 01:46:49 18° NW 01:49:17 10° NNE
ERBS 3.7 01:49:18 24° NNW 01:49:18 24° NNW 01:51:34 10° NNE
CZ-2C R/B 2.5 01:47:23 10° N 01:52:31 62° WNW 01:57:33 10° SSW
Cosmos 2184 Rocket 3.9 01:46:35 10° SSW 01:52:42 67° W 01:58:56 10° N
PSLV R/B 4.0 01:52:41 10° NNE 01:56:23 67° E 02:00:03 10° S
USA 234 3.3 01:50:51 10° SSE 01:57:18 61° SW 02:03:26 12° NW
Cosmos 2219 Rocket 3.3 01:57:06 22° WNW 01:57:35 23° WNW 02:01:56 10° N
NOSS 3-4 (A) 3.4 01:53:19 17° SW 01:57:53 59° NW 02:04:04 10° NNE
NOSS 3-4 (C) 3.4 01:53:17 17° SW 01:57:58 60° NW 02:04:10 10° NNE
Cosmos 1953 2.8 01:54:06 10° N 01:58:06 61° E 02:02:02 10° SSE
Cosmos 1606 Rocket 4.4 01:54:22 10° N 01:58:35 52° E 02:02:47 10° SSE
Cosmos 1954 Rocket 4.3 01:57:36 10° S 02:02:49 72° ESE 02:08:02 10° NNE
Okean 1-7 Rocket 4.3 01:58:32 10° S 02:02:51 56° E 02:07:13 10° NNE
Cosmos 2237 Rocket 2.3 01:58:34 10° SW 02:04:04 53° WNW 02:09:39 10° NNE
Cosmos 1758 3.3 02:00:58 10° NNW 02:04:52 55° W 02:08:48 10° S
ALOS 3.9 02:01:47 10° NNE 02:06:08 38° E 02:10:27 10° SSE
Nadezhda 3 Rocket 4.3 02:02:51 10° N 02:09:15 76° E 02:15:33 10° S
Cosmos 389 Rocket 2.8 02:09:44 10° SSW 02:12:56 38° WNW 02:16:11 10° N
IDEFIX/ARIANE 42P 4.1 02:11:41 10° NNW 02:14:46 16° WNW 02:15:10 16° WNW
COSMOS 2428 4.2 02:14:19 16° WNW 02:15:30 17° NW 02:19:05 10° NNW
In-Cosmos 22 4.3 02:10:44 10° S 02:16:00 77° E 02:21:25 10° NNE
Cosmos 1140 Rocket 3.5 02:11:07 10° SSW 02:16:14 60° WNW 02:21:22 10° N
RESURS DK-1 2.7 02:12:31 10° SSW 02:16:37 70° ESE 02:20:45 10° NNE
COSMO-SKYMED 1 2.9 02:14:48 10° SSE 02:19:06 70° ENE 02:23:26 10° N
Cosmos 292 Rocket 4.0 02:16:13 10° NNW 02:20:50 48° WSW 02:25:26 10° S
Cosmos 1980 4.3 02:15:45 10° SW 02:20:53 35° WNW 02:26:02 10° N
SJ-12 4.0 02:17:21 10° NNE 02:21:27 82° ESE 02:25:33 10° S
GPS 2-05 Rocket1 4.4 02:21:52 13° SW 02:22:51 15° SSW 02:24:32 10° SSE
Cosmos 44 3.0 02:19:51 10° NNW 02:24:12 82° ENE 02:28:30 10° SSE
ATLAS 3B R/B 2.9 02:18:00 10° NNW 02:24:45 74° ENE 02:31:40 10° SE
Meteor 1-31 Rocket 3.8 02:23:33 10° NNW 02:26:37 24° WNW 02:29:39 10° SW
H-2A R/B 4.2 02:25:51 10° NW 02:27:49 13° WNW 02:28:23 13° WNW
Meteor PRIRODA 4.3 02:26:29 10° N 02:29:52 33° WNW 02:33:15 10° SW
CZ-4B R/B 3.6 02:25:19 10° NNE 02:30:36 68° ESE 02:35:51 10° S
Cosmos 1707 3.9 02:31:16 10° SW 02:34:24 23° WNW 02:37:34 10° NNW
Cosmos 1470 3.9 02:32:25 10° NW 02:35:29 22° W 02:38:31 10° SW
CENTAUR R/B 3.3 02:30:21 10° NNW 02:38:39 83° WSW 02:47:24 10° SSE
ATLAS 2AS CENTAUR R/B 3.9 02:32:09 10° WSW 02:38:56 29° NW 02:45:46 10° NNE
Cosmos 1726 Rocket 3.5 02:36:04 10° NNW 02:40:20 61° W 02:44:34 10° S
IUS-9 SRM-1 4.1 02:37:56 10° SW 02:40:24 23° SSE 02:46:35 10° ESE
Meteor 2-10 4.2 02:35:40 10° N 02:40:52 85° E 02:46:16 10° S
Okean O Rocket 1.6 02:37:12 10° N 02:41:37 83° WNW 02:46:00 10° SSW
SL-8 Rocket 4.3 02:35:57 10° S 02:42:08 75° E 02:48:18 10° N
Cosmos 1484 Rocket 3.3 02:40:35 10° N 02:44:03 35° WNW 02:47:33 10° SW
Milstar 3 4.0 02:38:05 10° SW 02:44:13 37° SSE 02:51:15 10° E
Cosmos 2228 3.3 02:44:18 10° NNW 02:48:21 44° W 02:52:22 10° SSW
Cosmos 1356 3.4 02:44:57 10° NNW 02:48:22 61° W 02:51:45 10° S
NOAA 6 4.0 02:46:13 10° N 02:51:24 80° WNW 02:56:32 10° SSW
